Regional Weather Roundup
Issued by NWS

Home | Current Version | Previous Version | Text Only | Print | Product List | Glossary On
Versions: 1 2 3 4 5 6 7 8 9 10 11 12 13 14 15 16 17 18 19 20 21 22 23 24 25 26 27
000
ASUS44 KJAN 200010
RWRMS

MISSISSIPPI HOURLY WEATHER ROUNDUP
NATIONAL WEATHER SERVICE JACKSON MS
600 PM CST SUN NOV 19 2017

NOTE: "FAIR: INDICATES FEW OR NO CLOUDS BELOW 12,000 FEET WITH NO
SIGNIFICANT WEATHER AND/OR OBSTRUCTIONS TO VISIBILITY.

MSZ001>002-007>008-010>013-018>021-025>028-034>036-200100-
NORTHWEST MISSISSIPPI

CITY           SKY/WX    TMP DP  RH WIND       PRES   REMARKS
BATESVILLE     FAIR      42  26  51 CALM      30.24R
CLARKSDALE       N/A     45  27  49 N7        30.23R
CLEVELAND      FAIR      45  27  50 N6        30.23R
GREENWOOD      CLEAR     42  28  57 N3        30.22R
6HR MIN TEMP:  42; 6HR MAX TEMP:  57;

GREENVILLE     CLEAR     48  24  39 NW7       30.22R
6HR MIN TEMP:  47; 6HR MAX TEMP:  58;

OLIVE BRANCH   CLEAR    N/A N/A N/A CALM      30.19S
TUNICA           N/A    N/A N/A N/A NE6       30.24R
WINONA         FAIR      45  26  46 N5        30.21R
$$

MSZ003>006-009-014>017-022>024-029>033-037>039-200100-
NORTHEAST MISSISSIPPI

CITY           SKY/WX    TMP DP  RH WIND       PRES   REMARKS
ABERDEEN       FAIR      43  32  65 N5        30.21R
COLUMBUS AFB   CLEAR     45  32  60 N9        30.19R
6HR MIN TEMP:  45; 6HR MAX TEMP:  54;

CORINTH        FAIR      41  25  52 NW5       30.21R
GOLDN TRIANGLE CLEAR     46  30  53 NW8       30.19R
STARKVILLE     FAIR      45  32  61 CALM      30.20R
TUPELO         CLEAR     45  25  45 NW8       30.20R
6HR MIN TEMP:  45; 6HR MAX TEMP:  53;

$$

MSZ040-058-200100-
CENTRAL MISSISSIPPI

CITY           SKY/WX    TMP DP  RH WIND       PRES   REMARKS
JACKSON INTL   CLEAR     48  29  47 N5        30.19S
6HR MIN TEMP:  47; 6HR MAX TEMP:  61;

JACKSON HAWKNS CLEAR     49  28  44 N6        30.20R
6HR MIN TEMP:  49; 6HR MAX TEMP:  58;

MADISON        FAIR      45  30  57 CALM      30.20R
MERIDIAN KEY   CLEAR     47  34  60 NW6       30.18R
6HR MIN TEMP:  46; 6HR MAX TEMP:  60;

MERIDIAN NAS   CLEAR     46  34  62 N3        30.18R
6HR MIN TEMP:  46; 6HR MAX TEMP:  59;

RAYMOND        FAIR      48  39  71 CALM      30.20S
VICKSBURG VKS  CLEAR     48  32  53 CALM      30.23R
$$

MSZ059>079-200100-
SOUTH MISSISSIPPI

CITY           SKY/WX    TMP DP  RH WIND       PRES   REMARKS
COLUMBIA       FAIR      45  36  70 CALM      30.21S
HATTIESBURG    CLEAR     51  33  50 N5        30.17R
6HR MIN TEMP:  50; 6HR MAX TEMP:  60;

LAUREL         FAIR      44  33  67 NW5       30.18S
MCCOMB         CLEAR     48  32  53 N5        30.18R
6HR MIN TEMP:  48; 6HR MAX TEMP:  60;

NATCHEZ        CLEAR     47  33  58 CALM      30.22R
6HR MIN TEMP:  47; 6HR MAX TEMP:  59;

PINE BELT      CLEAR     48  33  56 NW7       30.17S
6HR MIN TEMP:  47; 6HR MAX TEMP:  60;

$$

MSZ080>082-200100-
COASTAL MISSISSIPPI

CITY           SKY/WX    TMP DP  RH WIND       PRES   REMARKS
BAY ST LOUIS   CLEAR     48  37  66 N3        30.17R
BILOXI         CLEAR     54  36  50 CALM      30.15R
6HR MIN TEMP:  54; 6HR MAX TEMP:  62;

PASCAGOULA     CLEAR     50  35  56 N5        30.15R
6HR MIN TEMP:  50; 6HR MAX TEMP:  63;

GULFPORT       CLEAR     53  34  48 N7        30.15R
6HR MIN TEMP:  53; 6HR MAX TEMP:  63;

$$

LAZ007>009-015>016-023>026-200100-
NORTHEAST LOUISIANA

CITY           SKY/WX    TMP DP  RH WIND       PRES   REMARKS
BASTROP        FAIR      43  33  66 CALM      30.23R
TALLULAH/VBURG PTCLDY    49  29  46 N5        30.22R
6HR MIN TEMP:  49; 6HR MAX TEMP:  60;

VIDALIA          N/A    N/A N/A N/A MISG      30.22R
$$




USA.gov is the U.S. government's official web portal to all federal, state and local government web resources and services.